{"data":{"norad_id":60514,"intl_designator":"2024-149AY","name":"FLOCK 4BE-9","alt_names":[],"object_type":"PAYLOAD","status":"ACTIVE","operator":null,"country":"US","launch_date":"2024-08-16","launch_site_code":"AFWTR","launch_vehicle":null,"mission":null,"orbit_class":"UNKNOWN","rcs_meters":null,"size_class":null,"mass_kg":null,"dimensions":null,"purposes":["earth_obs"],"wikipedia_slug":null,"has_3d_model":false,"image_url":null,"decayed_at":null,"tle_current":{"epoch":"2026-05-25T03:49:39.230976Z","epoch_age_seconds":61606,"freshness":"FRESH","line1":"1 60514U 24149AY  26145.15948184  .00015522  00000+0  39065-3 0  9994","line2":"2 60514  97.3790 229.2212 0003137  52.6416 307.5115 15.40009754 98779","mean_motion":15.40009754,"eccentricity":0.0003137,"inclination_deg":97.379,"raan_deg":229.2212,"arg_perigee_deg":52.6416,"mean_anomaly_deg":307.5115,"bstar":0.00039065,"rev_number":9877,"period_min":93.505901261973,"perigee_km":443.93974564732,"apogee_km":448.2212597085,"semimajor_km":6824.2175026779,"source":"CELESTRAK","updated_at":"2026-05-25T13:38:13.333683Z"}}}